Tracking 29892 objects as of 21-Nov-2024
HD Live streaming from Space Station
objects crossing your sky now

STARLINK-31186

Track STARLINK-31186 now!
10-day predictions
STARLINK-31186 is classified as:


NORAD ID: 59030
Int'l Code: 2024-038H
Perigee: 494.4 km
Apogee: 495.9 km
Inclination: 43.0 °
Period: 94.4 minutes
Semi major axis: 6866 km
RCS: Unknown
Launch date: February 25, 2024
Source: United States (US)
Launch site: AIR FORCE EASTERN TEST RANGE (AFETR)
Your satellite tracking list
Your tracking list is empty




NASA's NSSDC Master Catalog

Two Line Element Set (TLE):
1 59030U 24038H   24325.89340926 -.00001375  00000-0 -42702-4 0  9998
2 59030  43.0017 178.7635 0001060 290.6236  69.4501 15.25922763 42346
Source of the keplerian elements: AFSPC